[[{"header":{"parameterUnit":"m.s-1","parameterCategory":1,"la1":30.2992,"la2":30.254,"lo1":-89.0895,"lo2":-89.0443,"dy":0.0025,"dx":0.0025,"nx":19,"ny":19,"refTime":"2026-04-05T09:00:00:Z","depth":0,"parameterNumber":2,"parameterNumberName":"U-component_of_WINDS"},"data":[0,0,0,-2.6072,-2.6075,-2.6184,-2.6184,-2.6343,-2.6345,0,0,0,0,0,0,0,0,0,0,0,-2.6052,-2.6054,-2.6072,-2.6075,-2.6184,-2.6184,-2.6343,-2.6345,0,0,0,0,0,0,0,0,0,0,0,-2.6052,-2.6053,-2.6055,-2.6076,-2.6184,-2.6184,-2.6342,-2.6253,0,0,0,0,0,0,0,0,0,0,-2.6144,-2.6138,-2.6053,-2.6055,-2.6076,-2.6184,-2.6184,-2.6249,-2.6259,-2.6302,0,-2.6344,0,-2.6347,-2.6357,-2.6357,0,0,0,-2.6066,-2.6129,-2.6148,-2.6056,-2.6077,-2.6184,-2.6132,-2.6254,-2.6266,-2.6316,-2.6346,-2.6352,-2.635,-2.6358,-2.6359,-2.6639,-2.6641,0,0,-2.606,-2.6079,-2.614,-2.6156,-2.614,-2.6129,-2.6136,-2.6261,-2.6295,-2.6347,-2.6355,-2.6352,-2.6359,-2.636,-2.6638,-2.664,0,0,0,-2.6049,-2.6075,-2.6089,-2.615,-2.6168,-2.6132,-2.614,-2.629,-2.6293,-2.6357,-2.6354,-2.636,-2.6362,-2.6636,-2.6639,-2.6744,0,0,0,-2.6045,-2.6068,-2.6087,-2.61,-2.6166,-2.623,-2.6167,-2.6284,-2.6298,-2.6353,-2.636,-2.6364,-2.6634,-2.6637,-2.6737,-2.6792,0,0,0,-2.6041,-2.6068,-2.6087,-2.6101,-2.6148,-2.6228,-2.6238,-2.6287,-2.6297,-2.6357,-2.6364,-2.6633,-2.6637,-2.6731,-2.6781,-2.6873,0,0,0,-2.6042,-2.6179,-2.6089,-2.6241,-2.6147,-2.6291,-2.6237,-2.6343,-2.6407,-2.6361,-2.6634,-2.6638,-2.6729,-2.6775,-2.6866,-2.6955,-2.6993,0,0,-2.6226,-2.6202,-2.629,-2.6212,-2.6378,-2.6273,-2.6453,-2.6495,-2.6483,-2.6588,-2.6594,-2.6739,-2.6781,-2.6871,-2.7194,-2.7225,0,0,0,-2.6354,-2.6418,-2.6457,-2.652,-2.6554,-2.6588,-2.6599,-2.6614,-2.6702,-2.6541,-2.6795,-2.6819,-2.6871,-2.6913,-2.6939,-2.6984,-2.6658,-2.6657,-2.6657,-2.6643,-2.662,-2.6764,-2.6754,-2.6815,-2.6824,-2.6871,-2.6893,-2.6852,-2.6912,-2.6945,-2.7144,-2.7193,-2.7212,-2.7259,-2.6987,-2.6988,-2.6988,-2.6988,-2.6912,-2.6999,-2.694,-2.7059,-2.7034,-2.7133,-2.7147,-2.7114,-2.7204,-2.7117,-2.7163,-2.7074,-2.7246,-2.7286,-2.6996,-2.6995,-2.6994,-2.6993,-2.6992,-2.7101,-2.7139,-2.7154,-2.7241,-2.731,-2.7293,-2.7382,-2.7355,-2.733,-2.7374,-2.7406,-2.7404,-2.7401,-2.739,-2.7391,-2.7392,-2.7392,-2.7393,-2.7393,-2.7293,-2.7306,-2.7384,-2.7431,-2.7467,-2.751,-2.7519,-2.7554,-2.7585,-2.7558,-2.7558,-2.7513,-2.7266,-2.7207,-2.7404,-2.7402,-2.7401,-2.74,-2.7399,-2.758,-2.7511,-2.7631,-2.7667,-2.7719,-2.779,-2.7752,-2.7825,-2.7849,-2.7893,-2.7837,-2.7658,-2.7632,-2.7611,-2.7562,-2.784,-2.784,-2.784,-2.784,-2.7743,-2.7726,-2.7843,-2.7902,-2.7956,-2.7935,-2.8072,-2.8079,-2.8076,-2.8089,-2.8044,-2.7975,-2.7955,-2.7941,-2.7914,-2.7867,-2.8216,-2.8217,-2.8217,-2.7919,-2.7906,-2.8029,-2.8024,-2.8062,-2.8095,-2.8224,-2.8294,-2.8275,-2.8232,-2.81,-2.8084,-2.7972,-2.7936,-2.7895,-2.7852,-2.7766,0,0]},{"header":{"parameterUnit":"m.s-1","parameterCategory":1,"la1":30.2992,"la2":30.254,"lo1":-89.0895,"lo2":-89.0443,"dy":0.0025,"dx":0.0025,"nx":19,"ny":19,"refTime":"2026-04-05T09:00:00:Z","depth":0,"parameterNumber":3,"parameterNumberName":"V-component_of_WINDS"},"data":[0,0,0,-6.8806,-6.881,-6.8967,-6.8968,-6.9185,-6.9187,0,0,0,0,0,0,0,0,0,0,0,-6.8773,-6.8775,-6.8806,-6.881,-6.8967,-6.8968,-6.9184,-6.9187,0,0,0,0,0,0,0,0,0,0,0,-6.8773,-6.8775,-6.8777,-6.8811,-6.8967,-6.8968,-6.9184,-6.9059,0,0,0,0,0,0,0,0,0,0,-6.8903,-6.8887,-6.8774,-6.8778,-6.8812,-6.8967,-6.8968,-6.9052,-6.9066,-6.9122,0,-6.9178,0,-6.9186,-6.9203,-6.9204,0,0,0,-6.8799,-6.8875,-6.8906,-6.8778,-6.8814,-6.8967,-6.8893,-6.906,-6.9076,-6.9141,-6.9181,-6.9188,-6.919,-6.9204,-6.9205,-6.9569,-6.9571,0,0,-6.8791,-6.8808,-6.8895,-6.8917,-6.8898,-6.8888,-6.8898,-6.9069,-6.9113,-6.9181,-6.9193,-6.9193,-6.9206,-6.9208,-6.9567,-6.9569,0,0,0,-6.8773,-6.8803,-6.8828,-6.8909,-6.8936,-6.8893,-6.8905,-6.9105,-6.9112,-6.9195,-6.9196,-6.9207,-6.921,-6.9564,-6.9568,-6.9696,0,0,0,-6.8767,-6.8792,-6.8825,-6.8837,-6.8933,-6.9023,-6.8937,-6.91,-6.9119,-6.9195,-6.9207,-6.9212,-6.9562,-6.9566,-6.9687,-6.9754,0,0,0,-6.8758,-6.8791,-6.8819,-6.8838,-6.8907,-6.902,-6.9037,-6.9104,-6.912,-6.9204,-6.9213,-6.956,-6.9565,-6.968,-6.9741,-6.9855,0,0,0,-6.8753,-6.893,-6.8821,-6.9018,-6.8906,-6.9099,-6.9035,-6.9178,-6.9265,-6.9208,-6.9562,-6.9567,-6.9677,-6.9733,-6.9847,-6.9955,-7.0002,0,0,-6.8985,-6.8958,-6.9072,-6.898,-6.9198,-6.9074,-6.9309,-6.937,-6.936,-6.9499,-6.9507,-6.969,-6.974,-6.9853,-7.0257,-7.0294,0,0,0,-6.9152,-6.9234,-6.9288,-6.9373,-6.9426,-6.9476,-6.9499,-6.9521,-6.9639,-6.9436,-6.9761,-6.979,-6.9856,-6.9907,-6.9939,-6.9994,-6.9592,-6.9591,-6.9591,-6.9506,-6.9485,-6.9673,-6.9672,-6.9754,-6.9777,-6.9841,-6.9874,-6.9828,-6.9905,-6.9947,-7.0194,-7.0255,-7.0278,-7.0336,-7.0001,-7.0002,-7.0002,-7.0003,-6.9844,-6.9958,-6.9893,-7.0052,-7.0028,-7.0159,-7.0187,-7.015,-7.0267,-7.0161,-7.0218,-7.0106,-7.032,-7.0369,-7.0012,-7.001,-7.0009,-7.0008,-7.0008,-7.0074,-7.0125,-7.0151,-7.0271,-7.0366,-7.0356,-7.0473,-7.0445,-7.042,-7.0477,-7.0517,-7.0515,-7.0509,-7.0498,-7.0499,-7.05,-7.05,-7.0501,-7.0501,-7.0303,-7.0328,-7.0431,-7.0502,-7.0553,-7.0616,-7.0639,-7.0687,-7.0732,-7.0703,-7.0703,-7.0649,-7.0345,-7.027,-7.0515,-7.0512,-7.0511,-7.0509,-7.0509,-7.0655,-7.0572,-7.0731,-7.0783,-7.0862,-7.0957,-7.0921,-7.1021,-7.1056,-7.1114,-7.1047,-7.0827,-7.0796,-7.077,-7.0708,-7.1051,-7.1051,-7.1051,-7.1051,-7.085,-7.0832,-7.0989,-7.1073,-7.115,-7.1134,-7.1312,-7.1331,-7.1336,-7.1356,-7.1302,-7.1216,-7.1192,-7.1175,-7.1141,-7.1082,-7.1513,-7.1514,-7.1514,-7.1066,-7.1054,-7.1213,-7.122,-7.128,-7.1331,-7.1497,-7.1592,-7.158,-7.1532,-7.1371,-7.1352,-7.1213,-7.1169,-7.1118,-7.1066,-7.0957,0,0]}]]